Station MGIP4 - 9759110 - Magueyes Islands, PR Image indicating link to RSS feed of recent meteorological observations for station MGIP4


Conditions at MGIP4 as of
(12:00 pm AST)
1600 GMT on 04/14/2024:
     

Click on the graph icon in the table below to see a time series plot of the last five days of that observation.

5-day plot - Wind Direction Wind Direction (WDIR):SSE ( 160 deg true )
5-day plot - Wind Speed Wind Speed (WSPD): 6.0 kts
5-day plot - Wind Gust Wind Gust (GST): 8.9 kts
5-day plot - Atmospheric Pressure Atmospheric Pressure (PRES):29.98 in
5-day plot - Pressure Tendency Pressure Tendency (PTDY):-0.01 in ( Falling )
5-day plot - Air Temperature Air Temperature (ATMP): 83.8 °F
5-day plot - Water Temperature Water Temperature (WTMP): 85.3 °F
5-day plot - Wind Speed at 10 Meters Wind Speed at 10 meters (WSPD10M): 7.8 kts
5-day plot - Wind Speed at 20 Meters Wind Speed at 20 meters (WSPD20M): 7.8 kts
5-day plot -  Wind Speed, Wind Gust and Atmospheric Pressure Combined plot of Wind Speed, Gust, and Air Pressure
NOS Water Level Observation Network Water Level
Previous observations
TIME
(AST)
5-day plot - Wind Direction
WDIR
 
5-day plot - Wind Speed
WSPD
kts
5-day plot - Wind Gust
GST
kts
5-day plot - Wave Height
WVHT
ft
5-day plot - Dominant Wave Period
DPD
sec
5-day plot - Average Wave Period
APD
sec
5-day plot - Mean Wave Direction
MWD
 
5-day plot - Atmospheric Pressure
PRES
in
5-day plot - Pressure Tendency
PTDY
in
5-day plot - Air Temperature
ATMP
°F
5-day plot - Water Temperature
WTMP
°F
5-day plot - Dew Point
DEWP
°F
5-day plot - Salinity
SAL
psu
5-day plot - Visibility
VIS
nmi
5-day plot - Tide (above MLLW)
TIDE
ft
2024-04-14 11:54 amSSE 6.0 9.9----29.98- 83.7 85.3----
2024-04-14 11:48 amSSE 8.0 12.0----29.98- 83.1 85.1----
2024-04-14 11:42 amSSE 8.0 13.0----29.98- 83.5 85.1----
2024-04-14 11:36 am S 8.9 12.0----29.99- 83.3 85.1----
2024-04-14 11:30 am S 8.9 12.0----29.99-- 85.1----
2024-04-14 11:24 amSSE 7.0 9.9----29.99-- 85.1----
2024-04-14 11:18 am S 8.9 12.0----29.99-- 84.9----
2024-04-14 11:12 am S 8.9 12.0----29.99-- 84.9----
2024-04-14 11:06 am S 8.0 11.1----29.99-- 84.9----
2024-04-14 11:00 am S 8.9 11.1----30.00+0.01 82.9 84.9----
2024-04-14 10:54 am S 8.0 9.9----30.00- 83.1 84.7----
2024-04-14 10:48 am S 7.0 8.9----30.00- 83.3 84.7----
2024-04-14 10:42 am S 6.0 7.0----30.00- 83.3 84.7----
2024-04-14 10:36 am S 5.1 6.0----30.00- 82.8 84.7----
2024-04-14 10:30 am S 5.1 7.0----30.00- 82.8 84.6----
2024-04-14 10:24 am S 6.0 7.0----30.00- 82.8 84.6----
2024-04-14 10:18 am S 6.0 7.0----30.00- 82.8 84.6----
2024-04-14 10:12 am S 6.0 8.0----30.00- 82.4 84.6----
2024-04-14 10:06 am S 6.0 7.0----30.00- 82.6 84.6----
2024-04-14 10:00 am S 7.0 7.0----30.00+0.03- 84.6----
2024-04-14 09:54 am S 7.0 7.0----30.00-- 84.6----
2024-04-14 09:48 am S 6.0 7.0----30.00- 81.9 84.4----
2024-04-14 09:42 am S 5.1 6.0----30.00- 81.7 84.4----
2024-04-14 09:36 am S 5.1 6.0----30.00- 82.0 84.4----
2024-04-14 09:30 am S 4.1 5.1----30.00-- 84.2----
2024-04-14 09:24 am S 5.1 7.0----30.00-- 84.2----
2024-04-14 09:18 am S 5.1 7.0----30.00- 82.0 84.2----
2024-04-14 09:12 am S 5.1 6.0----30.00- 82.6 84.2----
2024-04-14 09:06 amSSE 4.1 6.0----30.00- 83.1 84.2----
2024-04-14 09:00 amESE 2.9 6.0----30.00- 84.0 84.4----
2024-04-14 08:54 am E 2.9 6.0----30.00- 83.8 84.2----
2024-04-14 08:48 am-------30.00- 83.7 84.2----
2024-04-14 08:42 am-------30.00- 83.5 84.2----
2024-04-14 08:36 am-------29.99- 84.0 84.0----
2024-04-14 08:30 am NE 1.9 5.1----29.99-- 84.0----
2024-04-14 08:24 amNNE 2.9 5.1----29.99-- 84.0----
2024-04-14 08:18 am N 2.9 4.1----29.99- 82.4 84.0----
2024-04-14 08:12 am- 0.0 4.1----29.99- 82.4 84.0----
2024-04-14 08:06 am- 0.0 1.9----29.99- 82.0 84.0----
2024-04-14 08:00 am N 1.9 4.1----29.99+0.04- 83.8----
2024-04-14 07:54 am N 2.9 5.1----29.98-- 83.8----
2024-04-14 07:48 am N 2.9 5.1----29.98-- 83.8----
2024-04-14 07:42 am N 2.9 4.1----29.98-- 83.8----
2024-04-14 07:36 amNNW 2.9 4.1----29.98-- 83.8----
2024-04-14 07:30 amNNW 2.9 2.9----29.98- 78.1 83.7----
2024-04-14 07:24 am- 0.0 1.9----29.98- 77.9 83.7----
2024-04-14 07:18 amNNE 1.0 1.0----29.98-------
2024-04-14 07:12 am- 0.0 1.9----29.97-------
2024-04-14 07:06 am N 1.9 1.9----29.97-------
2024-04-14 07:00 amNNE 1.0 1.9----29.97+0.03 75.7 83.7----
2024-04-14 06:54 am N 1.9 2.9----29.97- 74.7 83.8----
2024-04-14 06:48 am N 1.9 5.1----29.97-- 83.8----
2024-04-14 06:42 am N 1.9 5.1----29.97-- 83.8----
2024-04-14 06:36 am N 4.1 6.0----29.96-- 83.8----
2024-04-14 06:30 am N 2.9 4.1----29.96- 72.7 83.8----
2024-04-14 06:24 am E 1.0 5.1----29.96- 72.3 83.8----
2024-04-14 06:18 am N 4.1 5.1----29.96- 72.0 84.0----
2024-04-14 06:12 am N 5.1 6.0----29.96- 71.8 84.0----
2024-04-14 06:06 am N 2.9 5.1----29.96- 72.1 84.0----
2024-04-14 06:00 am N 4.1 5.1------ 72.5-----
2024-04-14 05:54 am N 2.9 5.1------ 72.9-----
2024-04-14 05:48 amNNE 1.9 6.0------ 72.7 84.0----
2024-04-14 05:42 am N 5.1 5.1------ 72.5 84.0----
2024-04-14 05:36 amNNE 4.1 5.1------ 72.7 84.0----
2024-04-14 05:30 amNNE 2.9 5.1----29.96-- 84.2----
2024-04-14 05:24 am N 4.1 5.1----29.96-- 84.2----
2024-04-14 05:18 am N 4.1 5.1----29.96- 72.5 84.2----
2024-04-14 05:12 am N 2.9 4.1----29.95- 72.7 84.2----
2024-04-14 05:06 am N 1.9 2.9----29.95- 72.9 84.2----
2024-04-14 05:00 amNNE 2.9 4.1----29.95-0.01 72.9 84.2----
2024-04-14 04:54 am N 1.9 2.9----29.95- 73.4 84.2----
2024-04-14 04:48 am- 0.0 1.9----29.95- 73.6 84.2----
2024-04-14 04:42 amNNE 1.0 1.9----29.95- 73.0 84.2----
2024-04-14 04:36 amNNE 1.9 2.9----29.95- 73.2 84.2----
2024-04-14 04:30 am N 1.9 1.9----29.94- 73.0 84.2----
2024-04-14 04:24 am- 0.0 2.9----29.94- 73.2 84.2----
2024-04-14 04:18 amNNE 1.9 4.1----29.94- 72.9 84.2----
2024-04-14 04:12 am N 2.9 4.1----29.94- 72.9 84.2----
2024-04-14 04:06 am N 4.1 5.1----29.94- 73.0 84.4----
2024-04-14 04:00 amNNE 1.9 4.1----29.94-0.03 73.4 84.4----
2024-04-14 03:54 am N 2.9 4.1----29.94- 73.6 84.4----
2024-04-14 03:48 am N 2.9 4.1----29.94- 73.6 84.4----
2024-04-14 03:42 am N 1.9 2.9----29.94- 73.6 84.4----
2024-04-14 03:36 amNNE 2.9 4.1----29.94- 73.2 84.4----
2024-04-14 03:30 amNNE 1.9 4.1----29.94- 73.0 84.4----
2024-04-14 03:24 amNNE 1.9 4.1----29.94- 73.0 84.4----
2024-04-14 03:18 amNNE 1.0 5.1----29.94- 73.0 84.4----
2024-04-14 03:12 amNNE 2.9 4.1----29.95- 73.0 84.4----
2024-04-14 03:06 amNNE 2.9 2.9----29.95- 73.4 84.4----
2024-04-14 03:00 am- 0.0 1.9----29.95-0.05 73.9 84.4----
2024-04-14 02:54 am NE 1.9 1.9----29.95- 74.1 84.4----
2024-04-14 02:48 am NE 1.9 1.9----29.95- 73.9 84.4----
2024-04-14 02:42 amNNE 1.9 2.9----29.95- 74.7 84.4----
2024-04-14 02:36 am N 1.9 2.9----29.95- 74.5 84.4----
2024-04-14 02:30 am N 1.9 2.9----29.95- 74.1 84.4----
2024-04-14 02:24 amNNE 1.9 4.1----29.96- 74.3 84.6----
2024-04-14 02:18 amNNE 1.9 2.9----29.96- 74.1 84.6----
2024-04-14 02:12 amNNE 1.0 2.9----29.96- 74.1 84.6----
2024-04-14 02:06 amNNE 1.9 2.9----29.96- 74.3 84.6----
2024-04-14 02:00 am N 1.9 2.9----29.96-0.05 74.5 84.6----
2024-04-14 01:54 amENE 1.0 4.1----29.96- 74.8 84.6----
2024-04-14 01:48 am N 2.9 2.9----29.96- 75.6 84.6----
2024-04-14 01:42 am- 0.0 1.0----29.96- 76.1 84.6----
2024-04-14 01:36 am N 1.0 4.1----29.96- 76.8 84.6----
2024-04-14 01:30 amNNE 1.9 2.9----29.96- 76.3 84.6----
2024-04-14 01:24 am N 1.0 1.9----29.96- 75.9 84.6----
2024-04-14 01:18 am- 0.0 0.0----29.97- 75.6 84.6----
2024-04-14 01:12 amESE 1.0 1.9----29.97- 75.0 84.6----
2024-04-14 01:06 amSSE 1.0 1.9----29.97- 75.2 84.6----
2024-04-14 01:00 am- 0.0 2.9----29.97-0.05 75.6 84.6----
2024-04-14 12:54 am N 1.9 2.9----29.97- 75.6 84.7----
2024-04-14 12:48 amNNW 1.9 1.9----29.98- 76.1 84.7----
2024-04-14 12:42 am- 0.0 1.0----29.98- 75.7 84.7----
2024-04-14 12:36 am- 0.0 1.0----29.98- 76.1 84.7----
2024-04-14 12:30 am- 0.0 1.0----29.99- 75.9 84.7----
2024-04-14 12:24 am- 0.0 1.0----29.99- 75.9 84.7----
2024-04-14 12:18 am- 0.0 1.0----29.99- 75.7 84.7----
2024-04-14 12:12 am- 0.0 1.9----29.99- 75.7 84.7----
2024-04-14 12:06 am- 0.0 1.0----29.99- 76.5 84.7----
2024-04-14 12:00 am- 0.0 0.0----30.00-0.01 76.3 84.7----
2024-04-13 11:54 pm- 0.0 1.9----30.00- 76.3 84.7----
2024-04-13 11:48 pm N 1.9 1.9----30.00- 76.5 84.7----
2024-04-13 11:42 pm N 1.0 2.9----30.01- 76.6 84.7----
2024-04-13 11:36 pm- 0.0 1.0----30.01- 76.8 84.9----
2024-04-13 11:30 pm- 0.0 1.0----30.01- 76.6 84.9----
2024-04-13 11:24 pm E 1.0 1.9----30.01- 76.5 84.9----
2024-04-13 11:18 pmNNE 1.0 1.9----30.01- 76.3 84.9----
2024-04-13 11:12 pm- 0.0 2.9----30.01- 76.5 84.9----
2024-04-13 11:06 pm N 1.9 2.9----30.01- 76.6 84.9----
2024-04-13 11:00 pm N 2.9 4.1----30.01+0.01 76.8 84.9----
2024-04-13 10:54 pm N 2.9 6.0----30.02- 77.2 84.9----
2024-04-13 10:48 pm N 2.9 5.1----30.02- 77.5 84.9----
2024-04-13 10:42 pmNNE 2.9 5.1----30.02- 77.5 84.9----
2024-04-13 10:36 pm NE 1.9 4.1----30.02- 77.5 84.9----
2024-04-13 10:30 pmNNE 1.9 4.1----30.02- 77.7 84.9----
2024-04-13 10:24 pm N 1.9 4.1----30.02- 77.5 84.9----
2024-04-13 10:18 pm N 2.9 6.0----30.02- 77.4 84.9----
2024-04-13 10:12 pm N 5.1 6.0----30.02- 77.5 85.1----
2024-04-13 10:06 pm N 5.1 7.0----30.02- 77.5 85.1----
2024-04-13 10:00 pm N 7.0 7.0----30.02+0.02 77.7 85.1----
2024-04-13 09:54 pm N 5.1 7.0----30.02- 78.3 85.1----
2024-04-13 09:48 pm N 4.1 6.0----30.02- 78.4 85.1----
2024-04-13 09:42 pm N 4.1 6.0----30.02- 78.8 85.1----
2024-04-13 09:36 pm N 1.0 2.9----30.02- 79.2 85.1----
2024-04-13 09:30 pm- 0.0 1.9----30.02- 79.5 85.1----
2024-04-13 09:24 pmNNE 1.9 2.9----30.01- 79.5 85.1----
2024-04-13 09:18 pm N 1.9 4.1----30.01- 79.7 85.1----
2024-04-13 09:12 pm N 1.9 2.9----30.01- 79.7 85.1----
2024-04-13 09:06 pm N 1.9 4.1----30.01- 79.9 85.1----
2024-04-13 09:00 pm N 2.9 4.1----30.01+0.02 80.1 85.1----
2024-04-13 08:54 pm N 1.9 2.9----30.01- 80.4 85.3----
2024-04-13 08:48 pm N 2.9 2.9----30.01- 80.6 85.3----
2024-04-13 08:42 pm- 0.0 2.9----30.01- 81.0 85.3----
2024-04-13 08:36 pm N 1.0 2.9----30.01- 81.3 85.3----
2024-04-13 08:30 pm N 1.9 2.9----30.01- 81.5 85.3----
2024-04-13 08:24 pm N 1.9 2.9----30.01- 81.5 85.3----
2024-04-13 08:18 pm-------30.01- 81.5 85.3----
2024-04-13 08:12 pm-------30.01- 81.7 85.3----
2024-04-13 08:06 pm-------30.01- 81.9 85.3----
2024-04-13 08:00 pm-------30.01+0.02 81.7 85.3----
2024-04-13 07:54 pm-------30.01- 81.7 85.3----
2024-04-13 07:48 pm E 1.9 6.0----30.01- 81.9 85.3----
2024-04-13 07:42 pmENE 2.9 6.0----30.01- 81.9 85.3----
2024-04-13 07:36 pmENE 1.9 5.1----30.01- 82.0 85.5----
2024-04-13 07:30 pm E 2.9 6.0----30.00- 82.0 85.5----
2024-04-13 07:24 pmENE 2.9 5.1----30.00- 82.0 85.5----
2024-04-13 07:18 pm E 2.9 5.1----30.00- 82.0 85.5----
2024-04-13 07:00 pm E 5.1 8.9----30.00+0.01 82.0 85.5----
2024-04-13 06:54 pm E 2.9 8.0----30.00- 82.0 85.5----
2024-04-13 06:48 pm E 1.9 8.9----30.00- 82.0-----
2024-04-13 06:42 pm E 4.1 8.9----30.00- 82.2-----
2024-04-13 06:36 pm E 5.1 9.9----30.00- 82.2-----
2024-04-13 06:30 pm E 5.1 11.1----30.00- 82.4 85.5----
2024-04-13 06:24 pm E 4.1 9.9----29.99- 82.6 85.5----
2024-04-13 06:18 pm E 5.1 8.0----29.99- 82.8 85.5----
2024-04-13 06:12 pm E 2.9 7.0----29.99- 83.5 85.6----
2024-04-13 06:06 pmESE 2.9 6.0----29.99- 83.3 85.5----
2024-04-13 06:00 pmESE 1.9 7.0----29.99+0.00 83.8 85.5----
2024-04-13 05:54 pmESE 5.1 8.0----29.99- 83.8 85.5----
2024-04-13 05:48 pm E 5.1 8.9----29.99- 83.3 85.5----
2024-04-13 05:42 pm E 4.1 9.9----29.99- 83.5 85.5----
2024-04-13 05:36 pm E 5.1 9.9----29.99- 82.9 85.5----
2024-04-13 05:30 pm SE 1.9 8.0----29.99- 83.1 85.6----
2024-04-13 05:24 pm E 5.1 7.0----29.99- 82.8 85.6----
2024-04-13 05:18 pmESE 4.1 7.0----29.98- 82.9 85.5----
2024-04-13 05:12 pm E 2.9 7.0----29.99- 82.8 85.5----
2024-04-13 05:06 pm E 2.9 7.0----29.99- 82.6 85.5----
2024-04-13 05:00 pm E 2.9 7.0----29.98-0.02 82.6 85.6----
2024-04-13 04:54 pmESE 2.9 8.0----29.98- 82.9 85.6----
2024-04-13 04:48 pm--------- 83.1 85.6----
2024-04-13 04:42 pm--------- 83.5 85.6----
2024-04-13 04:36 pm--------- 84.2 85.6----
2024-04-13 04:30 pmESE 5.1 11.1----29.98-- 85.6----
2024-04-13 04:24 pm SE 5.1 8.0----29.98-- 85.6----
2024-04-13 04:18 pmESE 4.1 14.0----29.98- 83.3 85.6----
2024-04-13 04:12 pm SE 7.0 12.0----29.98- 83.1 85.8----
2024-04-13 04:06 pmESE 6.0 12.0----29.99- 83.3 85.8----
2024-04-13 04:00 pm SE 7.0 12.0----29.99-0.04 83.5 85.8----
2024-04-13 03:54 pm SE 6.0 12.0----29.98- 83.7 85.8----
2024-04-13 03:48 pm SE 6.0 9.9----29.98- 82.9 85.8----
2024-04-13 03:42 pm SE 7.0 11.1----29.99- 82.8 85.8----
2024-04-13 03:36 pm SE 7.0 12.0----29.99- 82.9 85.8----
2024-04-13 03:30 pm SE 7.0 14.0----29.99- 82.9 85.8----
2024-04-13 03:24 pm SE 7.0 14.0----29.99- 82.9 85.8----
2024-04-13 03:18 pm SE 8.0 12.0----29.99- 82.9 85.8----
2024-04-13 03:12 pm SE 8.9 12.0----29.99- 83.1 86.0----
2024-04-13 03:06 pm SE 8.0 12.0----29.99- 83.5 86.0----
2024-04-13 03:00 pm SE 8.9 14.0----29.99-0.06 83.3 86.0----
2024-04-13 02:54 pm SE 8.9 15.0----29.99- 83.5 85.8----
2024-04-13 02:48 pm SE 8.9 15.0----29.99-- 85.8----
2024-04-13 02:42 pm SE 8.0 17.1----29.99-- 85.6----
2024-04-13 02:36 pm SE 9.9 15.9----29.99-- 85.6----
2024-04-13 02:30 pm SE 9.9 14.0----29.99- 84.6 85.6----
2024-04-13 02:24 pm SE 7.0 13.0----29.99- 83.8 85.6----
2024-04-13 02:18 pm-------30.00-- 86.2----
2024-04-13 02:12 pm-------30.00-- 86.2----
2024-04-13 02:06 pm-------30.00-- 86.2----
2024-04-13 02:00 pm SE 11.1 14.0----30.00-0.06 84.2 86.2----
2024-04-13 01:54 pm SE 11.1 14.0----30.01- 84.4 86.0----
2024-04-13 01:48 pm SE 8.9 14.0----30.01-- 85.6----
2024-04-13 01:42 pm SE 11.1 15.0----30.01-- 85.5----
2024-04-13 01:36 pm SE 9.9 15.0----30.01-- 85.5----
2024-04-13 01:30 pm SE 12.0 15.0----30.01- 84.0 85.6----
2024-04-13 01:24 pm SE 9.9 17.1----30.02- 84.4 85.8----
2024-04-13 01:18 pm SE 11.1 15.9----30.02- 84.2 85.5----
2024-04-13 01:12 pm SE 12.0 17.1----30.02- 84.2 85.5----
2024-04-13 01:06 pm SE 11.1 17.1----30.03- 84.2 85.5----
2024-04-13 01:00 pm SE 9.9 15.9----30.03-0.04 84.4 85.5----
2024-04-13 12:54 pm SE 12.0 19.0----30.03- 84.2 85.6----
2024-04-13 12:48 pm SE 12.0 17.1----30.03- 84.4 85.6----
2024-04-13 12:42 pm SE 13.0 18.1----30.03- 84.0 85.6----
2024-04-13 12:36 pm SE 12.0 18.1----30.03- 84.2 85.6----
2024-04-13 12:30 pm SE 11.1 17.1----30.04-- 85.5----
2024-04-13 12:24 pm SE 12.0 18.1----30.04-- 85.3----
2024-04-13 12:18 pm SE 11.1 15.9----30.04-- 85.3----
2024-04-13 12:12 pm SE 8.9 15.0----30.05-- 85.1----
2024-04-13 12:06 pm SE 9.9 15.0----30.05-- 85.1----
2024-04-13 12:00 pm SE 7.0 14.0----30.05-0.01 84.9 85.1----
2024-04-13 11:54 am SE 8.9 15.0----30.05- 84.7 85.1----